Погода в Ие

Россия / Республика Тыва     52°34′11″N   96°02′05″E
темп.,
°C
ветер,
м/с
пор.,
м/с
влажн.,
%
обл.,
%
осадки,
мм/ч
давл.,
гПа
погр.,
м
27 октября, ср
ср2701:00−2вюв11685 0.0 101710
04:00−3в01755 0.0 101810
07:00−3юз117321 0.0 102110
10:00+4зсз114416 0.0 1021209
13:00+8ссз13379 0.0 10191274
16:00+8всв124112 0.0 1019187
19:00+2с2269100 0.0 102240
22:00+1ссз1179100 0.0 102324
28 октября, чт
чт2801:000сз1283100 0.0 102350
04:000сз2290100 0.0 102366
07:00−1зсз1298100 0.1 102699
10:00+1сз246557 0.0 1027741
13:00+3сз234332 0.0 10261075
16:00+3сз223672 0.0 1027961
19:00−2с1138100 0.0 103010
22:00−3всв1138100 0.0 103010
29 октября, пт
пт2901:00−4св1140100 0.0 103010
04:00−4в0042100 0.0 103110
07:00−5всв014940 0.0 103210
10:00−1вюв11405 0.0 1032257
13:00+4вюв11425 0.0 1029597
16:00+4всв1147100 0.0 102852
19:00−1ююв016567 0.0 103110
22:00−3юв117662 0.0 103210
30 октября, сб
сб3001:00−3юв1181100 0.0 103210
04:00−4вюв1189100 0.0 103210
07:00−5вюв119280 0.0 103210
10:000вюв126972 0.0 1030237
13:00+5вюв124836 0.0 1025522
16:00+4всв1149100 0.0 102312
19:00+1ююз1163100 0.0 102410
22:00+1зсз1161100 0.0 102512
31 октября, вс
вс3101:00−1сз41079100 0.4 10301034
04:00−4зюз1184100 0.1 103211
07:00−5ююв119174 0.1 103316
10:00−2юв2567100 0.0 1030552
13:00+1юв234778 0.0 1026701
16:00+1юв1347100 0.0 1023827
19:00−3ссв0170100 0.1 102210
22:00−3в1170100 0.0 102010